Theta_e
339 339 338 338 339 339 338 338 338 337 338 338 339 338 338 338 337 336 336 336 337 337 338 337 336 337 339 339 340 339 337 336 336 337 337 336 336 337 337 336 337 337
339 339 339 339 339 338 338 338 338 337 337 337 338 338 338 338 337 337 336 336 337 338 338 337 336 336 338 339 339 339 338 337 336 337 337 336 336 337 336 336 336 336
338 338 338 339 339 338 338 338 338 338 337 337 336 337 338 338 337 336 336 337 338 338 338 337 337 337 338 338 338 338 338 338 338 337 337 337 336 336 336 336 336 336
338 339 339 339 338 338 338 338 338 338 338 338 337 337 337 338 337 337 337 337 337 337 337 338 339 339 338 338 338 338 337 338 338 337 336 337 337 336 336 336 336 336
339 339 339 339 338 339 339 338 338 337 338 338 337 337 337 337 338 337 337 338 337 337 337 338 339 339 339 338 338 339 338 338 337 336 335 336 336 336 336 336 336 336
339 340 340 339 338 338 339 339 338 338 338 338 338 337 337 337 338 338 338 338 337 337 338 338 339 338 338 337 338 339 339 339 337 336 335 335 336 336 336 336 336 336
340 340 339 339 339 338 339 338 338 338 337 338 337 337 337 337 337 338 338 338 337 338 337 337 338 339 337 337 337 337 338 339 338 337 336 336 336 336 336 336 335 336
340 338 337 338 339 339 338 339 339 338 338 338 338 337 337 337 337 338 338 338 338 338 338 337 338 338 338 337 337 337 338 339 338 338 337 337 337 336 336 335 336 337
339 337 335 335 337 337 338 338 338 338 338 338 337 337 337 336 337 338 338 337 338 338 338 338 338 338 338 338 338 338 339 339 338 338 338 338 337 336 336 336 336 337
338 336 335 334 335 335 336 337 338 337 338 338 337 337 337 336 338 339 339 338 338 338 337 338 338 338 339 339 339 338 338 338 338 338 338 338 337 336 336 335 335 336
337 337 335 335 335 334 334 335 336 337 337 337 337 337 336 336 337 338 339 339 338 338 337 338 338 338 339 338 337 337 337 337 337 338 337 337 337 336 336 335 335 335
337 337 336 336 336 335 335 335 335 335 336 336 337 336 336 337 336 337 338 339 339 338 337 338 338 338 338 337 337 337 338 337 338 338 338 337 337 336 336 335 335 335
336 337 336 336 335 335 336 335 335 335 335 336 336 336 336 336 336 336 337 337 338 338 337 338 338 337 337 337 337 337 338 338 339 339 338 338 338 337 336 336 336 336
335 335 335 335 335 335 335 335 335 335 335 336 337 336 336 336 336 336 336 336 337 338 338 338 338 337 337 337 337 338 338 339 340 340 339 339 338 338 337 337 337 337
334 335 334 334 335 335 335 335 335 335 335 335 336 336 336 336 336 336 336 336 337 337 338 338 337 337 337 338 338 338 338 339 340 340 340 340 340 339 338 338 338 338
333 334 335 334 334 335 335 335 335 335 334 335 335 335 336 336 336 336 336 336 336 336 337 337 337 338 338 338 338 338 338 339 339 340 340 339 339 339 339 339 339 339
330 332 333 334 334 334 334 334 334 334 334 334 335 335 335 336 336 336 336 336 336 337 337 337 338 338 337 337 337 338 338 339 339 339 339 339 338 338 338 339 339 339
329 330 330 331 332 333 333 334 334 334 334 335 335 335 335 335 336 336 336 336 337 337 337 337 338 338 336 335 336 335 336 337 339 339 339 338 338 338 338 338 339 339
325 327 328 329 330 330 331 332 332 334 334 335 334 335 335 335 335 335 335 336 337 338 338 338 338 338 336 335 334 333 333 335 338 339 339 338 339 338 338 338 339 339
322 323 324 325 327 328 328 329 330 331 333 333 334 334 334 334 335 335 335 336 336 336 337 338 338 338 336 335 334 333 332 334 336 339 340 339 339 339 338 338 338 338
319 320 320 322 323 325 326 327 328 329 329 330 332 333 334 334 334 334 335 335 335 336 336 337 337 337 337 336 335 334 334 333 335 338 340 339 339 339 339 339 338 338
316 315 316 317 318 320 323 324 325 326 327 328 329 330 331 333 333 334 334 335 335 335 335 335 336 336 336 336 336 335 334 334 335 336 338 340 340 340 340 339 339 338
313 313 313 313 314 316 318 320 321 322 323 324 326 327 328 329 330 332 333 334 335 335 334 333 333 334 335 335 334 334 334 334 335 336 337 338 340 340 340 340 340 339
311 311 312 312 312 314 315 316 317 318 318 320 321 323 324 325 327 328 330 332 333 334 334 333 333 333 334 334 333 333 333 334 335 335 336 337 338 339 340 340 340 339
311 310 310 311 311 312 313 314 315 315 316 317 317 318 319 319 321 324 326 328 330 330 331 332 332 333 333 333 333 333 333 333 334 335 336 336 337 339 339 339 340 339
312 311 311 311 311 311 312 312 312 313 314 314 315 315 316 316 316 317 320 323 326 327 328 329 330 332 332 331 331 332 332 332 332 333 335 336 337 338 338 339 339 339
Wind_Speed
22 21 22 21 19 18 17 17 16 17 18 17 17 17 18 19 19 19 19 19 19 20 20 19 19 16 13 12 12 11 13 15 16 14 15 15 14 13 13 13 12 10
21 21 21 21 20 19 18 17 16 15 16 17 16 15 15 16 16 17 18 19 18 20 20 20 20 19 15 14 13 12 13 14 15 14 14 14 13 13 13 13 12 11
21 22 22 20 20 20 19 18 18 16 15 15 16 15 14 14 15 16 17 17 17 18 19 19 19 19 18 16 16 15 15 15 14 14 14 14 13 13 13 12 10 10
22 21 22 21 20 20 20 19 19 19 17 16 17 17 16 16 16 16 17 16 16 17 17 17 16 17 17 16 16 16 16 15 15 14 14 13 13 12 12 11 9 10
23 22 21 21 20 19 20 20 20 20 19 18 18 18 18 18 18 17 17 17 17 16 16 15 14 14 15 15 15 14 14 14 14 14 14 13 13 13 12 12 11 11
22 22 21 21 20 20 20 21 20 20 19 19 18 18 18 18 19 19 18 18 17 16 16 15 14 13 14 14 14 13 13 13 14 14 14 14 14 14 13 12 13 12
22 21 20 20 20 20 19 20 20 19 19 18 18 18 17 18 19 19 19 18 18 17 16 16 15 14 15 15 14 14 13 12 13 14 14 13 13 14 13 12 13 13
20 19 20 20 19 18 18 18 18 18 18 18 18 18 18 18 18 18 19 19 18 17 17 16 16 16 16 15 15 15 14 13 13 14 14 14 13 13 13 13 12 12
18 17 19 20 19 18 17 16 16 16 16 17 17 17 17 17 17 17 18 18 18 17 17 16 16 16 16 16 16 15 15 14 14 14 14 14 13 13 13 13 12 12
14 15 16 17 19 19 17 15 14 13 13 15 16 16 16 16 16 16 17 17 17 17 17 17 17 17 17 16 16 15 16 15 14 14 14 14 14 14 13 13 13 13
13 14 15 15 16 17 17 16 13 10 9 10 12 14 15 15 15 16 16 17 17 18 18 17 17 17 17 16 16 16 15 15 14 14 14 14 15 14 14 14 13 13
13 14 13 14 14 14 15 16 15 13 11 9 9 12 13 13 14 15 16 16 17 17 18 17 17 17 17 17 16 16 15 14 14 13 14 14 14 14 14 14 13 13
9 10 10 11 12 13 14 15 15 15 15 13 11 12 13 13 14 14 15 16 16 17 17 17 17 17 17 16 16 15 15 14 13 13 13 13 13 13 14 13 13 13
4 5 7 9 10 12 12 13 13 13 14 14 13 14 15 15 15 14 15 15 14 15 16 16 17 17 17 16 15 14 14 13 12 12 12 12 12 12 13 12 12 12
2 4 5 7 8 10 11 12 13 12 13 14 14 14 15 16 16 15 14 14 13 14 14 15 16 16 15 15 15 14 13 13 12 12 11 11 10 11 11 11 12 12
1 3 5 6 7 8 10 11 13 13 13 14 14 14 13 14 15 16 16 15 13 13 13 14 14 14 15 16 15 14 13 13 13 12 12 11 10 10 11 11 12 12
2 2 4 6 5 6 8 9 11 12 12 13 13 14 14 13 14 15 16 16 15 14 14 14 14 14 15 17 18 16 14 13 12 12 12 11 10 10 11 11 12 13
3 2 2 4 5 4 6 7 8 9 10 10 11 12 13 13 13 14 15 15 15 14 15 15 15 15 16 17 19 20 18 14 12 12 12 12 12 12 12 11 12 13
3 3 4 4 4 4 4 5 6 6 6 7 8 10 11 12 12 12 13 14 14 14 15 15 15 16 18 18 19 20 20 17 14 12 13 13 13 14 14 13 12 12
2 4 5 5 4 3 4 4 5 5 5 5 5 6 8 9 10 11 12 12 13 13 14 14 14 15 17 18 19 19 19 19 17 14 13 14 14 14 15 15 14 13
2 4 5 6 5 4 4 5 5 4 4 5 5 5 5 6 8 10 11 12 12 13 13 12 13 14 15 17 17 17 16 18 17 15 14 15 15 15 16 16 16 15
3 4 5 6 5 4 5 6 6 5 4 3 4 4 5 5 6 7 9 10 10 11 12 12 12 13 15 16 16 14 14 16 16 16 16 16 16 16 17 16 17 17
5 5 5 5 5 5 5 6 6 6 4 3 3 3 3 3 4 5 6 7 7 8 9 11 13 14 15 15 14 14 14 15 16 17 17 17 16 16 17 16 17 18
7 6 5 5 5 4 5 5 6 6 5 4 4 3 2 2 2 3 4 4 5 5 6 8 10 11 13 13 13 14 15 15 16 17 17 17 16 16 17 16 17 19
8 8 7 7 6 5 4 4 5 5 5 4 3 3 3 2 0 1 2 3 3 3 4 6 7 8 8 9 10 11 13 15 16 16 16 16 16 16 16 16 16 18
9 8 8 7 7 6 5 4 4 5 5 4 3 3 3 2 1 1 1 1 2 2 4 5 5 5 5 6 7 9 10 12 15 16 16 16 16 16 16 17 17 17
Wind_Direction
203 204 205 206 207 210 211 211 208 204 204 203 200 200 200 201 203 202 201 201 202 203 201 200 199 197 196 194 189 187 194 203 202 200 208 215 216 217 221 222 219 219
205 205 205 205 205 206 207 207 207 207 209 208 205 202 199 199 201 202 202 199 199 201 197 195 195 193 192 189 185 183 191 201 203 203 208 213 215 216 219 218 214 216
207 206 207 206 204 203 202 203 202 203 207 208 206 202 196 194 197 199 200 198 199 199 195 193 192 191 188 183 182 186 191 193 197 203 206 208 212 214 213 212 208 208
210 208 209 207 205 203 201 201 200 198 201 203 204 202 196 189 189 192 196 197 197 198 198 198 194 189 187 183 183 190 192 191 194 201 204 204 207 207 206 205 202 202
212 210 210 207 205 204 202 203 201 197 198 201 202 202 198 191 185 187 192 193 195 197 197 198 197 193 190 188 188 191 192 191 195 201 202 203 203 202 203 203 200 200
212 211 209 207 206 203 202 204 202 199 199 201 203 204 201 196 189 186 188 189 190 192 191 191 193 195 194 192 191 193 195 193 194 199 202 203 204 203 204 204 203 201
209 208 206 206 206 204 204 205 203 201 200 201 204 205 203 201 195 189 188 189 189 190 190 188 188 190 191 191 193 195 196 196 196 200 205 206 206 207 206 206 206 203
204 202 205 206 204 203 206 207 205 203 203 203 205 206 204 203 200 194 191 192 192 191 189 187 188 189 188 189 194 196 195 198 200 203 208 210 210 209 206 206 207 203
199 197 204 207 205 205 207 209 207 204 204 206 207 207 205 205 202 198 196 196 194 192 190 189 188 188 190 194 196 197 198 200 202 205 208 211 211 211 209 207 207 204
197 196 199 203 205 206 206 208 209 208 209 212 213 209 206 206 205 201 200 198 195 194 193 191 190 189 192 197 197 199 201 201 202 206 210 214 215 214 212 210 211 209
197 196 194 197 203 204 203 203 204 205 208 216 220 214 208 208 209 204 201 199 197 197 196 194 193 192 193 196 198 200 201 201 203 206 212 218 219 217 215 212 212 211
201 197 193 197 201 204 205 203 201 201 202 205 215 216 210 209 211 208 204 204 201 200 200 199 197 195 196 197 199 201 202 204 205 208 213 216 218 219 217 214 212 211
205 200 198 200 201 204 205 203 203 204 204 203 206 212 213 211 212 211 209 209 208 206 205 203 200 199 199 198 200 202 203 205 207 209 213 213 214 217 217 215 214 212
184 191 201 199 200 203 201 199 202 205 204 203 203 207 212 212 211 213 214 214 215 214 211 208 204 202 200 200 202 202 201 204 207 208 210 210 211 213 214 213 213 211
127 158 181 186 191 194 193 194 199 204 205 203 202 204 210 214 213 211 214 216 218 220 218 215 211 207 204 201 201 202 201 202 205 208 209 209 210 211 210 209 210 210
61 138 152 165 177 184 189 194 197 202 207 204 201 201 205 214 216 214 211 212 215 218 219 217 215 212 208 203 199 198 199 201 203 205 207 208 210 214 213 213 214 213
355 121 139 144 150 167 180 186 193 200 206 206 203 200 201 208 215 215 212 210 211 215 216 216 215 212 210 207 202 198 196 201 206 204 204 205 208 214 218 220 221 221
5 30 100 121 127 146 160 166 179 189 199 206 206 204 202 204 208 213 214 212 212 215 217 217 215 213 213 212 210 205 201 203 208 208 207 205 204 210 216 219 223 223
46 49 57 81 105 125 138 144 153 161 179 199 207 208 207 206 206 210 214 213 213 216 219 220 220 218 219 218 217 214 209 208 212 214 211 208 204 205 210 214 219 222
109 98 84 76 82 102 120 124 123 128 147 165 184 202 209 211 211 212 215 216 217 218 219 220 222 222 224 225 223 219 214 211 215 220 218 215 211 206 207 209 211 216
95 103 102 96 90 91 106 117 117 119 134 142 148 166 189 208 216 218 219 219 220 221 221 221 225 226 227 231 231 226 218 215 218 223 222 220 218 213 210 209 207 209
116 101 99 104 108 107 107 112 117 120 125 137 143 150 164 184 205 217 222 222 223 225 224 225 229 230 228 233 236 232 224 219 218 222 223 221 220 218 215 213 210 209
140 120 100 99 106 111 113 111 110 109 106 114 134 146 158 171 193 207 213 221 223 226 230 231 232 233 230 232 235 233 227 219 216 220 224 223 221 219 218 218 216 213
155 140 123 116 108 104 107 108 108 108 103 103 110 114 130 171 213 214 213 219 217 219 237 239 235 232 230 230 232 231 227 220 216 218 223 225 224 221 219 220 220 219
158 151 144 135 123 114 108 102 101 102 100 104 111 109 114 118 159 226 226 228 221 231 254 253 243 231 226 228 231 228 226 224 222 222 223 223 225 222 220 221 222 223
163 163 160 151 137 131 123 106 92 86 83 87 94 92 89 77 41 4 295 239 226 242 252 251 248 232 222 236 238 230 231 231 228 228 227 225 226 226 222 221 221 222